Volver al catálogo

KUIPER-00618

ActivoComunicacionesLEO
NORAD 69294·PAYLOAD·🇺🇸 United States

Lanzado May 29, 2026 desde Vandenberg Space Force Base

Loading…

Próximos Pases (próximas 24 horas)

TLE

ActualizadoSource: CelesTrak SupGP

Época: Sep 14, 2026, 20:38 UTC

1 69294C 26118AD  26257.86030093  .00003250  00000+0  42559-3 0  2573
2 69294  51.9033 354.1397 0001861 169.9557 266.6595 14.79914165    10

Sigue KUIPER-00618 en tiempo real con AllMySat

Download on the App Store